[[{"header":{"parameterUnit":"m.s-1","parameterCategory":1,"la1":30.2991,"la2":30.254,"lo1":-89.0895,"lo2":-89.0444,"dy":0.0017,"dx":0.0017,"nx":28,"ny":28,"refTime":"2025-06-06T09:00:00:Z","depth":0,"parameterNumber":2,"parameterNumberName":"U-component_of_WINDS"},"data":[0,0,0,0,0,0,0,0,0,0,0,0,0,0,0,0,0,0,0,0,0,0,0,0,0,0,0,0,0,0,0,0,0,0,0,0,0,0,0,0,0,0,0,0,0,0,0,0,0,0,0,0,0,0,0,0,0,0,1.4957,1.4958,0,1.5,1.5,1.5001,1.5007,1.5006,1.5006,1.5005,1.5051,1.5052,1.5054,0,0,0,0,0,0,0,0,0,0,0,0,0,1.4882,1.4883,1.4957,1.4958,1.4958,1.5,1.5,1.5001,1.5007,1.5006,1.5006,1.5005,1.505,1.5052,1.5054,0,0,0,0,0,0,0,0,0,0,0,0,0,1.4918,1.4883,1.4957,1.4966,1.4967,1.5,1.5,1.5001,1.5007,1.5006,1.5006,1.5005,1.5049,1.5052,1.5054,1.5081,0,0,1.5061,1.5062,0,0,0,0,0,0,0,0,1.4916,1.4921,1.4964,1.4965,1.4967,1.4997,1.499,1.5028,1.5007,1.4992,1.5005,1.5005,1.5033,1.5037,1.5046,1.5083,1.5085,1.5061,1.5063,1.5064,1.5065,0,0,0,0,0,0,0,1.4914,1.4919,1.4974,1.4965,1.4966,1.4968,1.4973,1.4997,1.5016,1.4993,1.4994,1.4999,1.5034,1.5044,1.5047,1.5085,1.5061,1.5063,1.5065,1.5066,1.5145,1.5145,0,0,0,0,0,0,1.4909,1.4917,1.4973,1.4975,1.494,1.497,1.4975,1.4988,1.5015,1.5019,1.4999,1.4999,1.504,1.5045,1.5049,1.5081,1.5064,1.5066,1.5067,1.5144,1.5145,1.5146,0,0,0,0,0,0,1.4908,1.4914,1.4971,1.4946,1.4954,1.4972,1.4987,1.4989,1.4999,1.502,1.5023,1.5006,1.504,1.5046,1.5072,1.5083,1.5067,1.5069,1.5143,1.5144,1.5145,1.5147,0,0,0,0,0,0,1.4906,1.4914,1.4924,1.4947,1.4955,1.4993,1.4987,1.4991,1.5003,1.5003,1.5027,1.503,1.504,1.5069,1.5075,1.5086,1.5071,1.5142,1.5144,1.5145,1.5146,1.5148,1.5149,0,0,0,0,0,1.4903,1.4923,1.4924,1.4931,1.4968,1.4994,1.4999,1.5009,1.5004,1.5014,1.5027,1.503,1.5081,1.5072,1.5078,1.509,1.5142,1.5143,1.5145,1.5145,1.5147,1.5149,0,0,0,0,0,0,1.4902,1.4926,1.4928,1.4956,1.4973,1.4995,1.5008,1.5011,1.503,1.5029,1.5042,1.5047,1.5073,1.5084,1.5074,1.5117,1.5111,1.5114,1.5109,1.5111,1.5113,1.5109,1.5073,0,0,0,0,0,1.4905,1.4923,1.4944,1.4967,1.4975,1.499,1.5002,1.5008,1.5026,1.5034,1.5048,1.5066,1.5086,1.5099,1.5119,1.5147,1.5152,1.5159,1.5161,1.5162,1.5164,1.5179,1.5182,1.5151,1.5151,1.5151,0,0,1.4911,1.4927,1.4938,1.4967,1.4981,1.5,1.4996,1.5017,1.5031,1.5037,1.5063,1.5074,1.5095,1.5122,1.5135,1.5133,1.5174,1.5164,1.5165,1.5167,1.5181,1.5184,1.5187,1.5152,1.5152,1.5151,0,0,1.4933,1.4946,1.4967,1.498,1.5001,1.5011,1.5015,1.5037,1.5045,1.507,1.5075,1.5092,1.5127,1.5141,1.5153,1.5179,1.5181,1.5185,1.5194,1.5208,1.5211,1.5213,1.5222,1.5225,1.5187,1.5187,1.5187,0,1.4938,1.4967,1.4977,1.4997,1.5009,1.5014,1.5035,1.5048,1.5074,1.5082,1.5079,1.5122,1.5136,1.5166,1.5173,1.5182,1.5188,1.5182,1.5209,1.5212,1.5214,1.5223,1.5226,1.5187,1.5187,1.5187,1.5187,0,1.4972,1.4992,1.5006,1.503,1.5044,1.5065,1.5077,1.509,1.5095,1.5105,1.5131,1.5149,1.5171,1.5179,1.5185,1.521,1.5208,1.5207,1.5201,1.5217,1.5225,1.5229,1.5188,1.5188,1.5187,1.5187,0,0,1.4995,1.5024,1.5028,1.5039,1.5062,1.5077,1.5098,1.5119,1.513,1.5148,1.5165,1.5193,1.5192,1.5206,1.5213,1.5225,1.5244,1.5223,1.5223,1.5226,1.5273,1.5273,1.5276,1.5246,1.5246,1.5247,1.5271,0,1.5019,1.5055,1.5064,1.5094,1.5112,1.5117,1.5135,1.5151,1.516,1.5177,1.5189,1.5208,1.5206,1.5214,1.5226,1.5239,1.5253,1.5237,1.5262,1.5263,1.5256,1.5281,1.5282,1.5303,1.5274,1.5274,1.5275,0,1.5051,1.5069,1.5101,1.512,1.5128,1.5144,1.5164,1.518,1.5198,1.5204,1.5219,1.5224,1.5245,1.5238,1.5267,1.5256,1.5267,1.5274,1.5275,1.5278,1.527,1.5284,1.531,1.5313,1.528,1.528,1.5279,0,1.5064,1.5095,1.5119,1.5128,1.5151,1.5162,1.5172,1.5189,1.5202,1.5219,1.5227,1.5247,1.5258,1.5274,1.5285,1.5278,1.5313,1.5307,1.5318,1.5318,1.5326,1.5325,1.5354,1.5333,1.5333,1.5333,1.5333,0,1.5089,1.5109,1.5124,1.5139,1.516,1.517,1.5192,1.5202,1.5217,1.5234,1.5239,1.5255,1.5268,1.5285,1.5294,1.5316,1.5321,1.5327,1.5329,1.5326,1.5325,1.5333,1.5332,1.5333,1.5333,1.5333,1.5333,0,1.5107,1.5118,1.5144,1.5163,1.5169,1.5184,1.5201,1.5215,1.5225,1.5245,1.5251,1.5266,1.5286,1.5298,1.5324,1.533,1.5355,1.5356,1.5348,1.5349,1.536,1.5359,1.5395,1.54,1.5376,1.5376,1.5376,0,1.5122,1.5137,1.5158,1.5169,1.5179,1.5197,1.5209,1.522,1.5232,1.5253,1.5265,1.5285,1.5302,1.5334,1.5348,1.5367,1.5369,1.538,1.5372,1.5369,1.5369,1.5368,1.5369,1.5382,1.5382,1.5382,1.5382,0,1.5148,1.5153,1.517,1.5189,1.5203,1.5218,1.5234,1.5243,1.5256,1.5269,1.529,1.5303,1.5328,1.5348,1.5369,1.538,1.5383,1.5385,1.5388,1.5386,1.538,1.5383,1.5352,1.5384,1.5384,1.5384,1.5384,1.5384,1.5165,1.5178,1.5195,1.5213,1.5226,1.524,1.5254,1.5265,1.5282,1.5303,1.5308,1.5329,1.5346,1.5374,1.5385,1.5402,1.54,1.5406,1.5407,1.5408,1.5408,1.5378,1.5406,1.5406,1.5406,1.5406,1.5406,0,1.5191,1.5201,1.5218,1.5239,1.5254,1.5255,1.5272,1.5284,1.5303,1.5318,1.5334,1.5357,1.5376,1.5391,1.5411,1.5421,1.5423,1.5426,1.5425,1.5428,1.5409,1.5404,1.5424,1.5424,1.5424,1.5424,1.5424,1.5424,1.5206,1.5228,1.5234,1.5262,1.5273,1.5293,1.5303,1.5316,1.5328,1.5353,1.5369,1.5378,1.5393,1.5414,1.5431,1.5435,1.5442,1.5445,1.5449,1.5431,1.5429,1.5427,1.5422,1.5446,1.5446,1.5466,1.5466,1.5466]},{"header":{"parameterUnit":"m.s-1","parameterCategory":1,"la1":30.2991,"la2":30.254,"lo1":-89.0895,"lo2":-89.0444,"dy":0.0017,"dx":0.0017,"nx":28,"ny":28,"refTime":"2025-06-06T09:00:00:Z","depth":0,"parameterNumber":3,"parameterNumberName":"V-component_of_WINDS"},"data":[0,0,0,0,0,0,0,0,0,0,0,0,0,0,0,0,0,0,0,0,0,0,0,0,0,0,0,0,0,0,0,0,0,0,0,0,0,0,0,0,0,0,0,0,0,0,0,0,0,0,0,0,0,0,0,0,0,0,2.1458,2.1457,0,2.1392,2.1391,2.1391,2.1385,2.1386,2.1387,2.1387,2.1316,2.1313,2.131,0,0,0,0,0,0,0,0,0,0,0,0,0,2.1576,2.1574,2.1458,2.1457,2.1457,2.1392,2.1391,2.139,2.1385,2.1386,2.1387,2.1388,2.1316,2.1313,2.131,0,0,0,0,0,0,0,0,0,0,0,0,0,2.1519,2.1573,2.1458,2.1446,2.1445,2.1392,2.1391,2.139,2.1385,2.1386,2.1387,2.1388,2.1317,2.1314,2.131,2.1264,0,0,2.1298,2.1296,0,0,0,0,0,0,0,0,2.1522,2.1514,2.1449,2.1447,2.1445,2.1398,2.1406,2.1348,2.1385,2.1407,2.1387,2.1389,2.1342,2.1336,2.1321,2.1261,2.1257,2.1298,2.1295,2.1294,2.1292,0,0,0,0,0,0,0,2.1526,2.1517,2.1432,2.1448,2.1445,2.1443,2.1436,2.1395,2.1369,2.1405,2.1405,2.1397,2.1341,2.1325,2.1319,2.1256,2.1298,2.1294,2.1292,2.129,2.1154,2.1153,0,0,0,0,0,0,2.1533,2.152,2.1434,2.143,2.1487,2.144,2.1432,2.1412,2.137,2.1364,2.1397,2.1397,2.1331,2.1324,2.1317,2.1259,2.1294,2.129,2.1288,2.1155,2.1154,2.1152,0,0,0,0,0,0,2.1535,2.1525,2.1437,2.1475,2.1464,2.1437,2.1414,2.141,2.1394,2.1363,2.1358,2.1385,2.1332,2.1322,2.1277,2.1257,2.1288,2.1285,2.1157,2.1155,2.1153,2.1145,0,0,0,0,0,0,2.1539,2.1526,2.1509,2.1475,2.1462,2.1399,2.1413,2.1408,2.1388,2.1388,2.1351,2.1346,2.1332,2.1283,2.1273,2.1252,2.1282,2.1158,2.1156,2.1154,2.1147,2.1143,2.114,0,0,0,0,0,2.1543,2.1509,2.1508,2.1498,2.144,2.1398,2.139,2.1376,2.1386,2.1368,2.1348,2.1347,2.1261,2.1278,2.1267,2.1245,2.116,2.1157,2.1154,2.1148,2.1144,2.114,0,0,0,0,0,0,2.154,2.1504,2.1503,2.1457,2.1431,2.1397,2.1374,2.1372,2.1341,2.1343,2.1325,2.1317,2.1272,2.1254,2.1274,2.1198,2.1211,2.1206,2.1211,2.1206,2.1203,2.1207,2.1278,0,0,0,0,0,2.1534,2.1505,2.1474,2.1436,2.1424,2.1401,2.1382,2.1374,2.1345,2.1334,2.1311,2.1282,2.1248,2.1226,2.1194,2.1145,2.1136,2.1124,2.112,2.1117,2.1112,2.1084,2.1078,2.1143,2.1143,2.1143,0,0,2.1521,2.1498,2.148,2.1435,2.1414,2.1382,2.1392,2.1358,2.1333,2.1328,2.1284,2.1266,2.1233,2.1185,2.1163,2.1169,2.1093,2.1114,2.1112,2.1108,2.1081,2.1074,2.1069,2.1141,2.1141,2.1141,0,0,2.1482,2.1462,2.1428,2.1407,2.1375,2.136,2.1352,2.1319,2.1307,2.1264,2.1259,2.1229,2.1172,2.1148,2.1129,2.1081,2.1078,2.1071,2.1051,2.1024,2.1019,2.1014,2.0996,2.0989,2.1066,2.1066,2.1066,0,2.147,2.1423,2.1411,2.1377,2.1356,2.1352,2.1317,2.1296,2.1255,2.124,2.1248,2.1176,2.1153,2.11,2.1088,2.1073,2.1062,2.1074,2.1021,2.1016,2.1011,2.0994,2.0987,2.1065,2.1066,2.1066,2.1066,0,2.1409,2.1376,2.1352,2.1314,2.1291,2.1257,2.1238,2.1216,2.121,2.1194,2.1149,2.1122,2.1084,2.1071,2.1064,2.1016,2.102,2.1025,2.1037,2.1005,2.0988,2.0981,2.1064,2.1065,2.1065,2.1065,0,0,2.1364,2.132,2.1311,2.1294,2.1258,2.1232,2.1197,2.1161,2.1142,2.1114,2.1083,2.1036,2.1039,2.1017,2.1007,2.0984,2.0946,2.099,2.0989,2.0982,2.089,2.0886,2.0879,2.0945,2.0943,2.0942,2.0893,0,2.1319,2.1258,2.1247,2.1193,2.1162,2.1158,2.1127,2.1101,2.1086,2.1056,2.1039,2.1005,2.1013,2.0999,2.0976,2.0956,2.0927,2.0959,2.0914,2.0913,2.0921,2.087,2.0866,2.0821,2.0886,2.0885,2.0884,0,2.1259,2.1231,2.1174,2.1143,2.113,2.1102,2.1068,2.1041,2.1011,2.1002,2.0977,2.097,2.0932,2.0948,2.0895,2.0917,2.0898,2.0885,2.0883,2.0877,2.0895,2.0862,2.0806,2.0799,2.0874,2.0875,2.0875,0,2.1231,2.1178,2.1138,2.1123,2.1086,2.1066,2.105,2.1022,2.1001,2.097,2.0956,2.0922,2.0902,2.0875,2.0859,2.0872,2.0806,2.0821,2.0796,2.0796,2.0781,2.0782,2.072,2.0771,2.0771,2.0771,2.0771,0,2.1181,2.1146,2.1124,2.1099,2.106,2.1046,2.1007,2.0991,2.0966,2.0936,2.093,2.0902,2.0883,2.0852,2.0839,2.0796,2.0788,2.0778,2.0774,2.0777,2.0779,2.0764,2.0766,2.0769,2.077,2.077,2.077,0,2.1142,2.1126,2.1081,2.1051,2.1042,2.1014,2.0987,2.0962,2.0947,2.0909,2.09,2.0876,2.0839,2.0821,2.0774,2.0765,2.0717,2.0716,2.0727,2.0726,2.0701,2.0703,2.0626,2.0615,2.0675,2.0674,2.0674,0,2.1111,2.1084,2.1051,2.1032,2.1015,2.0984,2.0963,2.0948,2.0926,2.0891,2.0869,2.0833,2.0803,2.0744,2.0721,2.0686,2.0683,2.0659,2.0678,2.0682,2.0681,2.0683,2.0679,2.0655,2.0655,2.0654,2.0654,0,2.1057,2.1051,2.1021,2.0989,2.0964,2.0938,2.0912,2.0896,2.0877,2.0852,2.0816,2.0792,2.0746,2.0709,2.0672,2.0654,2.065,2.0648,2.064,2.0643,2.065,2.0644,2.0717,2.065,2.065,2.065,2.0651,2.0651,2.102,2.0996,2.0969,2.0936,2.0915,2.0891,2.0866,2.0848,2.0818,2.078,2.0773,2.0734,2.0704,2.0655,2.0635,2.0603,2.0608,2.0597,2.0594,2.0591,2.0589,2.0656,2.0596,2.0596,2.0597,2.0597,2.0597,0,2.0964,2.0947,2.0917,2.0882,2.0856,2.0857,2.0828,2.0805,2.0771,2.0745,2.0716,2.0673,2.0638,2.0613,2.0577,2.0556,2.0553,2.0546,2.0547,2.0543,2.0587,2.0597,2.0549,2.0549,2.0549,2.0549,2.0549,2.0549,2.0932,2.0892,2.0882,2.0831,2.0813,2.0776,2.0759,2.0736,2.0715,2.0668,2.0639,2.0624,2.0598,2.056,2.0527,2.052,2.0506,2.05,2.0493,2.0535,2.054,2.0544,2.0553,2.0497,2.0497,2.0451,2.045,2.045]}]]